[[{"header":{"parameterUnit":"m.s-1","parameterCategory":1,"la1":30.2991,"la2":30.254,"lo1":-89.0895,"lo2":-89.0444,"dy":0.0017,"dx":0.0017,"nx":28,"ny":28,"refTime":"2025-04-06T03:00:00:Z","depth":0,"parameterNumber":2,"parameterNumberName":"U-component_of_WINDS"},"data":[0,0,0,0,0,0,0,0,0,0,0,0,0,0,0,0,0,0,0,0,0,0,0,0,0,0,0,0,0,0,0,0,0,0,0,0,0,0,0,0,0,0,0,0,0,0,0,0,0,0,0,0,0,0,0,0,0,0,1.4786,1.4786,0,1.4815,1.4815,1.4816,1.4802,1.4802,1.4801,1.48,1.4833,1.4835,1.4836,0,0,0,0,0,0,0,0,0,0,0,0,0,1.4723,1.4724,1.4786,1.4786,1.4787,1.4815,1.4815,1.4816,1.4803,1.4802,1.4801,1.48,1.4833,1.4835,1.4837,0,0,0,0,0,0,0,0,0,0,0,0,0,1.4751,1.4724,1.4786,1.4783,1.4783,1.4815,1.4815,1.4816,1.4803,1.4802,1.4801,1.48,1.4832,1.4834,1.4837,1.4873,0,0,1.4844,1.4845,0,0,0,0,0,0,0,0,1.4749,1.4753,1.4783,1.4784,1.4784,1.4804,1.4805,1.4835,1.4803,1.4796,1.48,1.4799,1.4825,1.4828,1.4835,1.4875,1.4876,1.4844,1.4846,1.4847,1.4847,0,0,0,0,0,0,0,1.4747,1.4752,1.4797,1.4784,1.4784,1.4782,1.4785,1.4811,1.4816,1.4796,1.4795,1.4799,1.4825,1.4833,1.4836,1.4877,1.4844,1.4846,1.4848,1.4848,1.4948,1.495,0,0,0,0,0,0,1.4745,1.475,1.4797,1.4798,1.4763,1.4784,1.4787,1.4799,1.4816,1.4817,1.48,1.4798,1.483,1.4833,1.4837,1.4881,1.4847,1.4849,1.485,1.4947,1.4949,1.495,0,0,0,0,0,0,1.4744,1.4749,1.4795,1.4774,1.478,1.4786,1.4799,1.48,1.4808,1.4818,1.4819,1.4807,1.4829,1.4834,1.4864,1.4882,1.485,1.4852,1.4946,1.4948,1.4949,1.497,0,0,0,0,0,0,1.4742,1.4749,1.4762,1.4774,1.4781,1.4821,1.48,1.4801,1.4812,1.481,1.4826,1.4827,1.4829,1.4861,1.4867,1.4885,1.4854,1.4944,1.4947,1.4949,1.4968,1.4972,1.4976,0,0,0,0,0,1.474,1.4767,1.4762,1.4768,1.4797,1.4822,1.4826,1.4826,1.4813,1.4827,1.4834,1.4827,1.488,1.4864,1.487,1.489,1.4943,1.4946,1.4949,1.4966,1.4971,1.4976,0,0,0,0,0,0,1.4757,1.4768,1.4764,1.4795,1.4808,1.482,1.4837,1.4831,1.4848,1.4846,1.4846,1.485,1.4881,1.4889,1.4871,1.4927,1.491,1.4914,1.492,1.4926,1.493,1.4928,1.4856,0,0,0,0,0,1.4764,1.4782,1.4792,1.4819,1.4825,1.483,1.4841,1.484,1.4853,1.4858,1.4867,1.4881,1.4901,1.4914,1.4932,1.4969,1.4972,1.4985,1.499,1.4993,1.4997,1.5017,1.5023,1.4959,1.4959,1.4959,0,0,1.478,1.4788,1.48,1.4823,1.4832,1.4852,1.4834,1.4856,1.4871,1.4862,1.4891,1.4898,1.4914,1.4947,1.4963,1.4954,1.5015,1.4997,1.4999,1.5001,1.5021,1.5027,1.5032,1.4961,1.4961,1.4961,0,0,1.4818,1.4826,1.485,1.486,1.4874,1.4877,1.4883,1.4896,1.49,1.4929,1.4922,1.4941,1.4975,1.4986,1.4997,1.5041,1.5035,1.5047,1.5069,1.5089,1.5095,1.5099,1.5115,1.5121,1.5051,1.5051,1.5051,0,1.4836,1.4864,1.4863,1.4885,1.4896,1.4888,1.4913,1.4923,1.4943,1.4951,1.4941,1.4984,1.4994,1.5031,1.5041,1.505,1.5057,1.5045,1.5094,1.5098,1.5102,1.5118,1.5124,1.5052,1.5052,1.5052,1.5052,0,1.4886,1.4906,1.4924,1.4942,1.4955,1.4979,1.4982,1.4996,1.4994,1.4998,1.5029,1.5041,1.5062,1.5071,1.5069,1.5107,1.5102,1.5093,1.5076,1.511,1.5124,1.513,1.5054,1.5054,1.5053,1.5053,0,0,1.4935,1.4953,1.496,1.4968,1.4984,1.5,1.5024,1.5044,1.5056,1.507,1.5091,1.512,1.5112,1.5124,1.5124,1.5142,1.5177,1.5131,1.5131,1.5139,1.522,1.5226,1.5233,1.5173,1.5174,1.5175,1.5219,0,1.4975,1.5015,1.5015,1.5053,1.5072,1.5065,1.5086,1.5099,1.5104,1.5122,1.5128,1.5149,1.5137,1.5144,1.5161,1.5169,1.5193,1.5166,1.5193,1.5194,1.5189,1.5241,1.5247,1.5288,1.5224,1.5225,1.5226,0,1.5026,1.5041,1.508,1.5094,1.5102,1.5121,1.5139,1.5156,1.5171,1.5174,1.5187,1.5185,1.5211,1.5193,1.5229,1.5211,1.5222,1.5228,1.523,1.5232,1.5212,1.5245,1.5301,1.5307,1.5235,1.5234,1.5234,0,1.5058,1.5089,1.5116,1.5124,1.514,1.5154,1.5161,1.5175,1.5187,1.5204,1.5212,1.5233,1.5244,1.526,1.5264,1.5251,1.53,1.5283,1.5304,1.5304,1.5314,1.5314,1.5373,1.5322,1.5322,1.5322,1.5322,0,1.5102,1.5126,1.5131,1.5148,1.5175,1.5176,1.5204,1.5211,1.5223,1.5242,1.5239,1.5257,1.5261,1.5281,1.5284,1.5314,1.5319,1.5323,1.5323,1.5323,1.5322,1.533,1.5327,1.5324,1.5323,1.5323,1.5323,0,1.5142,1.5146,1.5176,1.5189,1.5193,1.5213,1.5225,1.5242,1.5247,1.5271,1.5277,1.5286,1.5309,1.5314,1.5342,1.5344,1.5379,1.5377,1.5374,1.5374,1.5395,1.5393,1.5461,1.547,1.5413,1.5414,1.5414,0,1.5169,1.5188,1.5203,1.5215,1.5223,1.5243,1.5256,1.5258,1.5271,1.529,1.5305,1.5327,1.5345,1.5383,1.5392,1.5413,1.5412,1.5435,1.5415,1.5414,1.5412,1.5411,1.5413,1.5438,1.5439,1.5439,1.544,0,1.5218,1.5219,1.5237,1.5255,1.527,1.5285,1.53,1.531,1.5315,1.533,1.5353,1.5367,1.5395,1.5418,1.544,1.5449,1.5446,1.5446,1.5452,1.5451,1.5449,1.5451,1.5384,1.5444,1.5444,1.5443,1.5443,1.5443,1.5253,1.5269,1.5282,1.5303,1.5314,1.5327,1.5344,1.5351,1.537,1.5393,1.5393,1.5419,1.5434,1.5463,1.5474,1.5494,1.5488,1.5496,1.5498,1.5501,1.5502,1.5446,1.5498,1.5498,1.5498,1.5498,1.5498,0,1.5301,1.5309,1.5328,1.5348,1.5364,1.5359,1.5375,1.5389,1.5411,1.5426,1.5443,1.547,1.5493,1.5504,1.5526,1.5541,1.554,1.5547,1.5545,1.5548,1.5507,1.55,1.5547,1.5547,1.5547,1.5547,1.5547,1.5547,1.5328,1.5355,1.5359,1.5392,1.5401,1.5425,1.5435,1.5448,1.546,1.549,1.5508,1.5515,1.5529,1.5552,1.5573,1.5576,1.5584,1.5592,1.5594,1.5556,1.5551,1.5546,1.5539,1.5594,1.5594,1.5633,1.5633,1.5634]},{"header":{"parameterUnit":"m.s-1","parameterCategory":1,"la1":30.2991,"la2":30.254,"lo1":-89.0895,"lo2":-89.0444,"dy":0.0017,"dx":0.0017,"nx":28,"ny":28,"refTime":"2025-04-06T03:00:00:Z","depth":0,"parameterNumber":3,"parameterNumberName":"V-component_of_WINDS"},"data":[0,0,0,0,0,0,0,0,0,0,0,0,0,0,0,0,0,0,0,0,0,0,0,0,0,0,0,0,0,0,0,0,0,0,0,0,0,0,0,0,0,0,0,0,0,0,0,0,0,0,0,0,0,0,0,0,0,0,7.7365,7.7368,0,7.7582,7.7584,7.7587,7.7588,7.7585,7.7583,7.758,7.7801,7.7809,7.7818,0,0,0,0,0,0,0,0,0,0,0,0,0,7.6955,7.6962,7.7365,7.7368,7.7371,7.7581,7.7584,7.7587,7.7589,7.7585,7.7582,7.7579,7.7798,7.7808,7.7818,0,0,0,0,0,0,0,0,0,0,0,0,0,7.7148,7.6964,7.7365,7.7397,7.7402,7.7581,7.7584,7.7588,7.7589,7.7585,7.7581,7.7577,7.7795,7.7807,7.782,7.7981,0,0,7.7859,7.7864,0,0,0,0,0,0,0,0,7.7137,7.7163,7.7389,7.7395,7.7401,7.7554,7.7521,7.772,7.759,7.7518,7.758,7.7575,7.7722,7.774,7.779,7.7992,7.8001,7.786,7.7867,7.7873,7.7876,0,0,0,0,0,0,0,7.7124,7.7154,7.7451,7.7393,7.74,7.7401,7.7424,7.7558,7.7641,7.7524,7.7525,7.755,7.7724,7.7778,7.7795,7.8004,7.7859,7.7871,7.7878,7.7883,7.8353,7.8358,0,0,0,0,0,0,7.7104,7.7143,7.7444,7.7457,7.7256,7.7411,7.7437,7.7509,7.7639,7.7655,7.7554,7.755,7.7758,7.7781,7.7803,7.8004,7.7873,7.7885,7.7892,7.8349,7.8354,7.836,0,0,0,0,0,0,7.7095,7.7131,7.7435,7.73,7.7339,7.7423,7.7504,7.7515,7.7569,7.7662,7.7676,7.7593,7.7756,7.7785,7.7938,7.8011,7.789,7.7902,7.8343,7.835,7.8357,7.8404,0,0,0,0,0,0,7.7083,7.7127,7.7189,7.7302,7.7346,7.7566,7.7508,7.7523,7.7591,7.7588,7.7703,7.7718,7.7755,7.7919,7.7951,7.8027,7.7912,7.8337,7.8346,7.8355,7.8397,7.8412,7.8426,0,0,0,0,0,7.7068,7.7193,7.7192,7.7229,7.7425,7.757,7.7596,7.7636,7.7597,7.766,7.772,7.7714,7.7998,7.7935,7.797,7.8051,7.8332,7.8343,7.8354,7.839,7.8409,7.8426,0,0,0,0,0,0,7.7085,7.7208,7.7209,7.7373,7.7462,7.757,7.7651,7.7655,7.7756,7.7748,7.7794,7.782,7.7973,7.8027,7.7954,7.8216,7.816,7.8179,7.8176,7.8195,7.8209,7.8194,7.7922,0,0,0,0,0,7.7108,7.7216,7.7317,7.7452,7.7497,7.7567,7.7631,7.7655,7.7748,7.7785,7.7856,7.7947,7.8057,7.8129,7.8235,7.8404,7.8431,7.8478,7.8492,7.8504,7.852,7.8617,7.864,7.8396,7.8396,7.8395,0,0,7.7157,7.7237,7.7302,7.7458,7.7529,7.7641,7.7598,7.7716,7.78,7.7803,7.7953,7.8008,7.8113,7.8276,7.8351,7.8325,7.8593,7.8518,7.8526,7.8536,7.8631,7.8654,7.8675,7.8403,7.8402,7.8401,0,0,7.7302,7.7373,7.7495,7.7568,7.7677,7.7723,7.7752,7.7862,7.7899,7.805,7.8056,7.8156,7.8343,7.8419,7.8482,7.8659,7.8659,7.8692,7.8769,7.8864,7.8883,7.8901,7.8967,7.899,7.8708,7.8708,7.8708,0,7.7349,7.7517,7.7557,7.7678,7.7748,7.7757,7.7882,7.795,7.8088,7.8137,7.8106,7.8344,7.8415,7.8597,7.8641,7.8691,7.8728,7.868,7.8877,7.8895,7.8912,7.8976,7.9,7.8712,7.8711,7.8711,7.871,0,7.757,7.7686,7.7772,7.7907,7.7986,7.8108,7.8168,7.8243,7.8261,7.8311,7.8466,7.8551,7.8677,7.8721,7.8738,7.8908,7.8889,7.8867,7.8812,7.8938,7.8999,7.9024,7.8717,7.8715,7.8714,7.8713,0,0,7.7732,7.7889,7.7921,7.7983,7.8105,7.8197,7.832,7.8443,7.8508,7.8603,7.871,7.887,7.8852,7.8923,7.8949,7.9032,7.9171,7.9001,7.9004,7.9032,7.9367,7.9384,7.9411,7.9171,7.9176,7.918,7.9359,0,7.7893,7.8113,7.8154,7.8346,7.8456,7.8467,7.8575,7.8663,7.8713,7.8814,7.8869,7.8983,7.8949,7.8993,7.9075,7.9137,7.924,7.9124,7.9272,7.9277,7.9248,7.9443,7.9461,7.9626,7.9383,7.9387,7.939,0,7.811,7.8212,7.8416,7.8526,7.8574,7.867,7.8788,7.8884,7.8984,7.9015,7.9096,7.9114,7.9245,7.9183,7.9365,7.9285,7.9348,7.9388,7.9396,7.9413,7.9342,7.9468,7.9679,7.9705,7.9427,7.9424,7.9421,0,7.8211,7.84,7.8547,7.86,7.8731,7.88,7.8858,7.8954,7.9026,7.913,7.9178,7.9294,7.9359,7.945,7.9499,7.9449,7.9679,7.962,7.971,7.9709,7.9759,7.9756,7.9987,7.9796,7.9795,7.9795,7.9794,0,7.8388,7.8513,7.8595,7.8685,7.8826,7.8873,7.9012,7.9069,7.9155,7.9258,7.9274,7.937,7.9429,7.9534,7.9574,7.972,7.9748,7.9779,7.9788,7.9779,7.9776,7.9822,7.9813,7.9802,7.98,7.9799,7.9798,0,7.8526,7.8585,7.8747,7.8859,7.8891,7.899,7.9087,7.9176,7.9226,7.9357,7.939,7.947,7.9595,7.9654,7.9808,7.9835,8.0003,8.0003,7.9969,7.9973,8.0061,8.0054,8.0332,8.0373,8.0152,8.0154,8.0156,0,7.8636,7.8732,7.8856,7.8927,7.8987,7.91,7.9175,7.9225,7.9303,7.9426,7.9501,7.9627,7.9731,7.9931,8.0003,8.0122,8.0127,8.0217,8.0145,8.0134,8.0133,8.0127,8.0139,8.023,8.0232,8.0234,8.0236,0,7.8826,7.8851,7.8959,7.9078,7.9167,7.9263,7.9357,7.9414,7.948,7.9566,7.9695,7.9776,7.9935,8.0061,8.0186,8.0246,8.0254,8.0257,8.0285,8.0278,8.0256,8.0273,8.0008,8.0251,8.025,8.0248,8.0248,8.0247,7.8955,7.9043,7.9145,7.9265,7.9341,7.943,7.952,7.9583,7.9692,7.9826,7.9849,7.9987,8.0088,8.0256,8.0321,8.0431,8.041,8.0449,8.046,8.047,8.0477,8.0236,8.0453,8.0453,8.0453,8.0452,8.0452,0,7.9149,7.9215,7.9325,7.9458,7.9553,7.9551,7.9656,7.9736,7.9857,7.9951,8.0053,8.0203,8.0326,8.0409,8.0534,8.0606,8.0613,8.0638,8.0634,8.0649,8.0486,8.0451,8.0631,8.0631,8.0631,8.0631,8.0631,8.0631,7.9261,7.9411,7.9449,7.9637,7.9703,7.9839,7.99,7.9982,8.0057,8.0224,8.0327,8.038,8.0471,8.0603,8.0717,8.0738,8.0785,8.0811,8.0832,8.0679,8.066,8.0642,8.061,8.082,8.082,8.0986,8.0988,8.0989]}]]